Regional Weather Roundup
Issued by NWS

Home | Current Version | Previous Version | Text Only | Print | Product List | Glossary Off
Versions: 1 2 3 4 5 6 7 8 9 10 11 12 13 14 15 16 17 18 19 20 21 22 23 24 25 26 27 28 29 30 31 32 33 34 35 36 37 38 39 40 41 42 43 44 45 46 47 48 49 50

529
ASUS43 KBIS 210802
RWRND

NORTH DAKOTA REGIONAL WEATHER ROUNDUP
NATIONAL WEATHER SERVICE BISMARCK ND
300 AM CDT THU SEP 21 2017

NOTE: "FAIR" INDICATES FEW OR NO CLOUDS BELOW 12,000 FEET WITH NO
SIGNIFICANT WEATHER AND/OR OBSTRUCTIONS TO VISIBILITY.


NDZ001>003-009>011-017-210900-
NORTHWEST NORTH DAKOTA

CITY           SKY/WX    TMP DP  RH WIND       PRES   REMARKS
WILLISTON      PTCLDY    41  37  86 NW5       29.62F
MINOT          PTCLDY    59  37  44 SE9       29.64F
MINOT AFB      CLOUDY    51  38  62 S8        29.63F
$$

NDZ018>021-031>035-040>046-210900-
SOUTHWEST NORTH DAKOTA

CITY           SKY/WX    TMP DP  RH WIND       PRES   REMARKS
BISMARCK       PTCLDY    54  39  57 SE10      29.72F
DICKINSON      CLOUDY    53  35  50 S10       29.65F
GARRISON         N/A     56  41  57 S10       29.67F
HETTINGER ARPT CLOUDY    61  32  33 S16       29.70F
$$

NDZ004>008-012>016-024-026-027-054-210900-
NORTHEAST NORTH DAKOTA

CITY           SKY/WX    TMP DP  RH WIND       PRES   REMARKS
GRAND FORKS    CLEAR     51  46  83 S7        29.82S
GRND FRKS AFB  CLEAR     51  44  76 S7        29.81S
DEVILS LAKE    CLEAR     55  43  63 S13       29.75F
$$

NDZ022-023-025-028>030-036>039-047>053-210900-
SOUTHEAST NORTH DAKOTA

CITY           SKY/WX    TMP DP  RH WIND       PRES   REMARKS
FARGO          CLEAR     56  46  69 SE15G21   29.85F
JAMESTOWN      CLEAR     48  43  82 S8        29.79F
$$





USA.gov is the U.S. government's official web portal to all federal, state and local government web resources and services.